Weather in Suchitepéquez

Guatemala     14°22′50″N   91°25′49″W
temp.,
°C
wind,
m/s
gust,
m/s
humid.,
%
clouds,
%
prec.,
mm/h
press.,
hPa
HPBL,
m
28 september, tue
tue2800:00+21nne2492100 2.6 101463
03:00+21nne118768 0.0 101323
06:00+21n228258 0.0 101323
09:00+27sw126186 0.0 1013460
12:00+30sw23565 0.0 10121188
15:00+29sw336446 0.6 10101167
18:00+24w129287 2.8 101157
21:00+22ne2196100 5.1 101326
29 september, wed
wed2900:00+22nne2194100 6.2 101322
03:00+21nne2191100 0.0 101118
06:00+21nne1187100 0.0 101217
09:00+27ssw116499 0.0 1014456
12:00+30ssw215676 0.0 10121205
15:00+27sw238181 1.5 1009548
18:00+23nnw119255 6.7 101111
21:00+22nne219526 3.5 101326
30 september, thu
thu3000:00+21nne22958 5.3 101332
03:00+21nne219410 0.2 101125
06:00+20nne21917 0.2 101223
09:00+26s117313 0.0 1013461
12:00+29ssw226929 0.4 10121058
15:00+27wsw118231 4.4 1009364
18:00+23ne009446 7.9 101111
21:00+21nne219789 2.3 101330
1 october, fri
fri100:00+20nne229660 4.8 101339
03:00+20n22929 0.1 101126
06:00+20nne21895 0.3 101225
09:00+26ssw11728 0.0 1013431
12:00+28sw227025 0.8 10121002
15:00+26wsw118331 3.6 1010655
18:00+23ne11957 5.7 101116
21:00+21nne21955 0.1 101320
2 october, sat
sat200:00+20nne21935 0.1 101325
03:00+20n228914 0.3 101126
06:00+20nne219097 2.2 101321
09:00+26sw1172100 0.0 1014414
12:00+29sw226667 0.3 10121130
15:00+26w238558 3.6 1009443
18:00+23nnw019610 5.9 101012
21:00+21n219713 6.2 101230